TimeAKDT,TemperatureF,Dew PointF,Humidity,Sea Level PressureIn,VisibilityMPH,Wind Direction,Wind SpeedMPH,Gust SpeedMPH,PrecipitationIn,Events,Conditions,WindDirDegrees,DateUTC
12:54 AM,45.0,42.1,90,29.70,6.0,East,9.2,-,0.02,Rain,Light Rain,100,2013-10-04 08:54:00
1:54 AM,45.0,42.1,90,29.70,10.0,East,9.2,-,0.01,Rain,Light Rain,90,2013-10-04 09:54:00
2:54 AM,45.0,42.1,90,29.69,9.0,ESE,6.9,-,0.01,Rain,Light Rain,110,2013-10-04 10:54:00
3:35 AM,44.6,42.8,93,29.68,5.0,ESE,8.1,-,0.01,Rain,Light Rain,120,2013-10-04 11:35:00
3:54 AM,44.1,42.1,93,29.69,6.0,SE,9.2,-,0.01,Rain,Light Rain,130,2013-10-04 11:54:00
4:54 AM,45.0,43.0,93,29.68,5.0,SE,9.2,-,0.02,Rain,Light Rain,130,2013-10-04 12:54:00
5:09 AM,44.6,42.8,93,29.67,2.5,East,5.8,-,0.01,Rain,Rain,100,2013-10-04 13:09:00
5:17 AM,46.4,42.8,87,29.67,4.0,ENE,9.2,16.1,0.02,Rain,Light Rain,70,2013-10-04 13:17:00
5:54 AM,46.0,43.0,89,29.68,7.0,East,8.1,-,0.06,Rain,Light Rain,90,2013-10-04 13:54:00
6:54 AM,46.0,44.1,93,29.68,5.0,ENE,9.2,-,0.06,Rain,Light Rain,70,2013-10-04 14:54:00
7:54 AM,43.0,41.0,93,29.68,10.0,Variable,5.8,-,0.06,Rain,Light Rain,0,2013-10-04 15:54:00
8:54 AM,43.0,42.1,97,29.68,6.0,Calm,Calm,-,0.10,Rain,Light Rain,0,2013-10-04 16:54:00
9:45 AM,46.4,44.6,93,29.66,10.0,ENE,11.5,19.6,0.01,,Overcast,70,2013-10-04 17:45:00
9:54 AM,48.0,44.1,86,29.67,10.0,ENE,11.5,19.6,0.01,,Overcast,70,2013-10-04 17:54:00
10:54 AM,48.0,44.1,86,29.67,10.0,ENE,10.4,18.4,0.00,,Overcast,70,2013-10-04 18:54:00
11:38 AM,48.2,44.6,87,29.66,10.0,East,8.1,-,0.00,,Overcast,80,2013-10-04 19:38:00
11:54 AM,48.9,43.0,80,29.67,10.0,ENE,9.2,-,0.00,,Overcast,70,2013-10-04 19:54:00
12:51 PM,48.2,44.6,87,29.67,10.0,East,10.4,16.1,0.00,,Overcast,80,2013-10-04 20:51:00
12:54 PM,48.9,44.1,83,29.68,10.0,East,8.1,16.1,0.00,Rain,Light Rain,80,2013-10-04 20:54:00
1:54 PM,48.9,45.0,86,29.67,10.0,East,6.9,-,0.01,Rain,Light Rain,90,2013-10-04 21:54:00
2:54 PM,48.9,44.1,83,29.68,8.0,ENE,11.5,19.6,0.00,Rain,Light Rain,60,2013-10-04 22:54:00
3:54 PM,46.9,43.0,86,29.68,8.0,ENE,8.1,-,0.03,Rain,Light Rain,60,2013-10-04 23:54:00
4:36 PM,48.2,44.6,87,29.68,10.0,ENE,10.4,-,0.02,Rain,Light Rain,70,2013-10-05 00:36:00
4:54 PM,46.9,44.1,90,29.69,10.0,East,9.2,-,0.02,,Overcast,80,2013-10-05 00:54:00
5:09 PM,48.2,44.6,87,29.68,10.0,ENE,11.5,18.4,N/A,,Overcast,70,2013-10-05 01:09:00
5:54 PM,46.9,43.0,86,29.69,10.0,East,9.2,-,N/A,,Overcast,80,2013-10-05 01:54:00
6:28 PM,46.4,42.8,87,29.68,10.0,ENE,6.9,-,N/A,,Overcast,70,2013-10-05 02:28:00
6:54 PM,46.9,43.0,86,29.70,7.0,East,9.2,-,0.00,Rain,Light Rain,90,2013-10-05 02:54:00
7:54 PM,46.9,43.0,86,29.71,6.0,East,5.8,-,0.01,Rain,Light Rain,80,2013-10-05 03:54:00
8:54 PM,46.9,44.1,90,29.72,10.0,ENE,9.2,-,0.01,,Overcast,70,2013-10-05 04:54:00
9:07 PM,46.4,42.8,87,29.72,10.0,East,10.4,-,N/A,,Overcast,80,2013-10-05 05:07:00
9:54 PM,46.9,44.1,90,29.73,10.0,East,4.6,-,0.00,Rain,Light Rain,80,2013-10-05 05:54:00
10:43 PM,46.4,44.6,93,29.74,10.0,NE,6.9,-,0.01,Rain,Light Rain,40,2013-10-05 06:43:00
10:54 PM,46.9,44.1,90,29.75,10.0,ENE,8.1,-,0.01,Rain,Light Rain,60,2013-10-05 06:54:00
11:54 PM,46.9,43.0,86,29.78,10.0,East,4.6,-,0.00,,Overcast,80,2013-10-05 07:54:00